Theta_e
316 317 315 312 311 316 321 325 327 326 326 326 324 322 325 327 325 323 321 321 321 321 321 320 320 320 320 320 320 321 322 323 323 324 325 325 325 324 327 325 314 311 313 314 315 317 319 317 317 315 312 313 313 314 315 317 319 319 325 327 325 329 327 326 326 318 320 325 318 316 319 319 319 318 319 321 321 321 321 321 323 324 324 325 325 325 321 327
315 316 317 314 311 311 316 323 326 326 326 326 325 323 323 326 325 324 323 322 321 321 321 320 320 320 320 321 321 321 322 323 323 323 324 324 325 326 327 327 318 311 313 314 314 317 320 319 317 315 313 313 313 315 315 316 316 320 327 325 327 333 326 320 319 315 317 321 317 316 319 319 318 318 319 322 321 321 325 327 327 325 325 327 327 326 323 327
314 315 316 316 312 309 310 317 323 325 326 326 325 324 323 324 325 326 324 322 322 321 321 320 320 320 321 322 322 322 322 322 323 323 324 324 325 326 326 328 323 314 313 315 313 314 320 322 319 316 313 312 313 314 316 317 316 318 321 324 330 329 320 315 314 313 316 318 316 316 318 319 318 319 319 321 320 320 325 330 329 327 326 327 328 327 324 326
313 313 315 316 315 311 307 312 319 322 325 326 325 325 323 323 324 326 325 322 322 322 321 321 320 320 321 322 322 322 322 322 323 323 324 324 325 326 326 327 326 319 314 316 315 314 317 319 320 319 314 312 312 313 315 317 316 316 318 324 326 318 316 317 314 314 315 316 316 317 318 318 317 319 318 319 321 320 321 324 325 324 323 325 328 327 324 326
311 312 313 315 316 314 307 308 317 321 324 327 325 325 324 323 324 326 326 324 322 322 321 321 321 320 321 322 323 322 323 324 324 323 324 324 325 325 326 326 327 324 318 317 315 314 316 315 319 321 315 313 313 314 316 315 316 317 316 320 319 315 316 317 315 315 315 316 316 316 318 319 317 317 317 319 321 321 320 320 320 320 319 321 324 326 325 325
310 311 312 313 315 316 311 307 315 320 322 326 325 324 324 323 324 324 325 325 323 322 321 321 321 320 321 322 323 322 323 325 323 322 325 325 325 325 325 326 327 327 322 319 316 315 317 315 318 320 315 316 316 316 317 313 315 318 317 316 316 316 316 316 316 315 315 316 316 316 318 318 317 316 317 319 320 319 320 320 320 320 319 318 321 324 325 324
309 310 311 312 313 315 314 308 312 318 321 325 326 324 324 323 323 323 324 325 324 322 322 321 321 321 321 322 322 322 322 323 320 321 325 325 325 325 325 325 326 327 325 321 316 315 317 315 317 317 315 320 318 314 315 312 312 317 317 316 316 316 315 316 316 315 316 316 317 317 317 317 317 318 317 317 319 318 319 319 319 320 320 320 321 322 322 322
309 310 311 311 312 313 314 311 309 316 321 324 326 325 324 323 323 323 324 325 325 323 322 321 321 321 321 322 322 322 322 322 320 320 323 324 325 325 324 325 325 327 327 323 317 316 317 315 316 317 318 322 319 314 314 313 314 318 318 316 315 315 315 316 315 315 316 317 317 317 316 317 317 317 316 316 318 317 318 318 319 320 321 322 321 321 322 322
309 310 310 311 311 311 314 313 309 314 319 322 326 325 324 323 323 323 324 325 325 324 323 321 321 321 321 321 322 322 323 323 321 320 321 323 324 324 324 324 325 326 327 325 318 316 317 315 315 317 317 318 316 315 314 312 315 319 317 315 314 314 314 315 314 314 315 316 317 317 316 316 316 316 316 317 317 317 317 317 318 320 322 323 321 321 322 322
309 310 310 310 311 311 312 313 311 312 316 321 325 325 324 323 323 323 323 324 325 325 323 321 321 322 322 322 322 322 323 322 322 321 321 322 322 323 323 324 325 326 327 326 321 318 318 317 315 315 315 315 315 314 313 312 314 316 315 313 312 313 314 314 313 313 314 315 316 317 316 314 314 315 317 317 316 317 317 317 318 319 321 322 322 321 321 321
308 309 310 310 310 311 311 313 312 310 314 320 323 325 324 323 323 323 323 323 324 325 324 322 321 322 323 323 322 322 322 322 322 322 322 323 322 322 323 324 325 326 327 326 323 321 321 320 317 317 318 315 315 315 314 313 313 312 314 315 313 312 313 313 313 313 313 314 315 316 314 313 314 315 316 317 316 317 317 318 319 319 320 320 321 321 321 321
308 309 310 311 311 311 311 312 313 310 312 319 322 324 324 322 323 323 323 323 323 324 324 322 322 322 323 323 323 323 322 322 322 322 323 323 322 322 323 323 325 325 327 326 324 324 323 322 319 320 320 315 315 316 315 314 312 312 314 316 316 313 314 313 312 313 313 314 315 315 315 314 315 316 316 316 316 316 317 318 319 319 320 320 321 321 321 320
307 309 310 310 310 311 311 311 313 311 312 317 320 322 324 323 323 323 322 322 322 324 324 322 322 322 323 323 322 322 321 322 322 323 324 323 323 323 322 323 324 325 327 326 325 325 324 324 322 320 318 313 313 315 314 312 311 313 314 316 318 315 316 315 311 313 313 313 314 314 317 318 316 315 315 316 316 317 318 318 319 319 320 320 321 321 321 320
307 309 310 310 310 310 311 310 312 313 311 315 317 320 324 323 322 323 322 322 323 325 324 322 322 322 322 323 322 321 321 321 321 322 324 323 322 322 322 323 324 325 326 327 326 324 323 324 321 318 316 313 312 312 311 311 312 314 312 314 318 317 319 318 311 312 314 313 313 313 316 319 317 314 314 315 315 317 318 318 318 319 320 320 320 320 320 320
308 309 309 310 310 309 310 310 312 313 311 312 315 318 323 323 322 322 322 323 323 325 324 322 323 322 322 322 321 321 321 321 320 320 323 323 322 323 323 322 324 326 327 327 324 323 323 321 318 315 314 313 312 310 310 311 313 314 313 314 316 316 321 320 311 311 315 313 312 313 315 317 316 313 313 314 315 317 318 318 319 319 320 320 320 320 320 319
308 308 309 309 309 309 310 310 311 312 312 312 314 318 323 322 322 321 322 323 323 325 324 323 323 322 322 322 321 321 321 322 320 319 322 322 322 323 323 323 325 325 324 323 321 321 320 318 315 314 313 312 310 310 311 312 314 314 314 316 317 315 318 318 312 311 313 313 312 312 316 319 316 312 312 313 314 316 316 318 319 319 320 320 320 320 320 319
307 308 308 308 308 308 309 311 311 311 312 312 314 319 323 322 322 322 322 323 324 324 323 323 322 322 322 319 319 320 321 323 320 319 321 321 322 323 323 324 323 321 318 317 317 317 317 314 313 313 312 310 310 310 312 311 313 314 313 316 319 316 314 316 316 312 311 313 314 313 314 318 317 312 311 313 313 314 314 316 319 320 320 320 320 320 320 319
307 307 308 308 308 308 309 310 311 310 312 312 313 319 323 321 322 322 323 324 324 323 322 322 321 322 322 318 318 320 322 323 320 319 321 321 322 323 325 324 320 318 316 315 316 315 314 312 311 312 311 310 310 310 312 313 316 316 314 314 316 315 314 315 317 314 312 313 314 314 313 315 316 312 311 312 313 314 313 314 316 318 319 319 320 319 318 318
307 307 308 308 308 308 309 310 311 310 312 312 313 319 323 321 322 323 324 325 323 321 320 320 320 323 323 318 318 320 323 322 318 318 321 321 323 324 325 321 317 317 316 314 315 313 312 311 311 312 311 311 310 309 312 316 318 317 314 314 315 316 315 316 317 314 312 313 314 314 314 313 314 313 312 312 313 313 313 313 314 315 317 318 318 317 317 315
308 307 308 308 308 308 309 310 311 310 312 311 312 319 324 322 323 323 322 324 321 320 320 319 321 320 319 318 318 320 322 320 318 318 319 321 324 323 321 318 314 315 315 314 314 313 312 311 311 312 312 311 311 309 311 313 314 313 314 314 314 316 315 316 318 313 311 313 314 314 314 313 314 314 311 310 312 312 312 312 312 313 314 316 316 315 315 315
307 307 307 307 307 308 309 310 310 311 311 311 314 321 323 322 324 322 320 322 320 319 319 319 322 318 316 318 318 320 320 317 317 318 318 320 324 321 316 315 313 313 314 313 313 312 311 312 311 312 312 311 311 311 310 311 311 311 314 316 314 314 315 315 316 314 311 313 316 315 314 313 313 314 311 309 311 312 311 311 311 312 313 314 315 314 315 315
308 307 307 307 308 309 309 310 310 312 310 313 319 322 322 322 323 321 320 321 319 318 318 319 321 318 316 318 319 321 318 314 315 316 316 318 321 319 314 314 314 313 313 312 312 311 311 313 312 311 311 310 311 311 310 311 310 311 315 317 316 315 315 314 315 314 312 313 318 317 314 314 314 314 311 308 310 312 313 313 313 313 313 313 314 314 315 315
312 311 310 310 310 310 310 310 311 312 311 315 322 322 322 322 322 321 320 320 318 318 317 318 320 317 314 315 318 320 316 312 312 313 315 317 318 319 315 314 315 313 312 312 313 312 311 312 311 310 310 310 311 311 310 311 310 312 315 315 317 317 315 315 314 314 313 313 317 316 315 316 315 315 313 310 311 312 313 314 314 314 313 314 314 314 314 314
314 313 312 311 311 312 312 311 312 312 311 316 321 320 320 321 321 322 320 319 318 317 317 318 319 316 312 314 318 319 315 312 312 312 315 316 316 317 315 315 315 313 312 312 313 312 312 311 309 309 310 311 311 311 311 311 310 313 315 315 319 319 315 316 315 314 313 313 316 315 314 319 319 317 316 312 310 311 312 312 312 313 314 313 314 313 314 314
314 313 313 313 314 314 313 313 314 312 311 317 320 318 319 319 320 321 319 319 320 318 317 317 318 316 312 314 318 318 315 312 312 312 314 316 317 316 315 315 315 313 312 311 312 312 311 310 309 310 310 311 311 311 312 312 311 314 316 317 321 321 317 317 317 316 314 314 316 313 314 325 327 320 319 315 311 311 310 310 311 313 314 313 313 314 314 314
315 315 315 315 316 314 313 314 314 312 314 319 320 317 319 318 318 320 320 321 321 318 317 317 318 316 312 314 316 317 317 314 311 312 314 316 318 316 314 313 313 313 312 310 311 313 312 309 310 311 311 312 312 311 312 313 312 313 316 319 322 323 321 319 317 317 318 315 314 314 315 322 323 321 324 319 315 315 311 309 310 311 314 313 313 315 314 314
316 316 315 315 315 313 314 316 313 313 316 320 319 317 318 318 318 319 320 322 321 317 317 318 318 316 313 313 315 318 320 316 311 311 313 315 317 316 314 313 312 311 310 310 312 313 312 310 311 312 311 312 312 311 312 313 312 314 318 321 322 322 323 323 318 318 320 315 315 321 319 316 317 320 323 317 315 318 316 313 311 310 312 314 314 316 315 315
316 316 315 314 314 313 314 315 314 313 315 318 317 317 317 318 319 318 320 323 321 316 317 318 316 314 312 313 315 316 317 314 311 311 312 315 315 313 314 312 311 311 309 310 313 311 310 311 311 312 311 311 310 311 315 314 313 317 322 323 321 321 323 324 320 319 318 313 317 323 316 314 322 326 324 317 314 319 321 321 316 310 312 314 313 315 316 315
316 316 315 314 313 312 313 315 314 312 312 315 317 317 317 318 318 317 320 323 318 314 317 319 315 312 312 313 314 313 312 313 312 311 311 313 313 312 313 312 310 310 309 310 313 312 310 310 310 310 312 312 311 314 317 315 314 317 320 321 321 323 322 322 324 324 318 314 320 324 316 314 323 328 325 317 314 318 321 320 314 309 312 314 313 314 315 315
315 316 315 313 313 314 315 317 316 313 313 314 315 316 317 317 317 319 321 321 317 315 317 316 313 311 312 311 311 311 312 313 311 310 310 311 311 311 311 311 309 312 314 312 314 314 310 308 309 311 312 312 313 314 314 315 314 314 320 321 319 323 325 326 331 328 316 317 326 329 321 314 317 324 324 317 316 318 316 317 314 310 312 314 314 315 314 315
315 315 314 313 314 314 316 318 317 316 315 315 315 316 316 315 316 320 320 317 317 316 314 314 312 311 312 311 311 312 312 311 309 310 311 310 311 310 310 312 310 314 317 314 314 315 311 310 311 310 309 310 314 314 312 314 313 316 324 322 316 323 327 328 331 324 316 321 326 324 319 314 315 322 323 318 318 317 315 317 318 313 313 314 314 315 315 315
316 314 313 312 313 314 315 317 317 317 317 316 316 315 315 315 317 319 318 315 317 316 312 313 312 311 312 312 311 312 312 311 310 310 311 310 311 310 311 313 311 313 314 311 314 314 312 314 312 310 309 311 316 316 314 316 315 316 321 318 316 320 320 319 321 320 318 320 319 315 314 314 316 319 319 317 317 317 313 313 314 312 312 313 314 314 314 315
315 313 313 313 313 314 315 316 316 316 316 316 315 314 314 316 318 318 316 315 317 315 312 312 312 311 312 312 311 311 312 312 310 310 311 311 311 310 312 314 313 316 316 313 313 312 314 317 313 312 311 310 314 314 315 318 316 314 315 315 317 318 314 315 317 316 317 318 315 312 313 315 317 317 318 316 314 314 312 309 311 311 311 313 313 314 315 315
313 313 314 314 314 314 315 316 316 316 315 315 314 314 315 317 317 316 315 313 314 313 313 312 312 312 312 312 311 311 312 312 310 310 311 311 311 311 312 313 313 318 318 315 313 312 315 316 313 313 313 310 313 314 316 320 318 315 316 317 318 320 318 317 317 317 318 318 315 311 314 319 318 317 317 313 310 312 312 311 312 311 312 314 313 314 315 314
312 314 316 316 315 315 315 317 316 315 315 315 314 314 316 318 316 315 315 312 312 313 313 313 312 312 313 311 311 311 312 312 311 311 311 310 311 310 311 311 311 315 316 313 313 313 314 315 313 312 310 310 313 313 314 317 317 317 318 317 317 321 323 319 319 323 323 320 317 313 316 322 318 315 315 310 308 310 310 311 312 311 312 313 313 314 314 314
312 314 317 316 317 316 315 316 316 315 315 314 314 314 316 316 314 315 314 312 312 313 313 314 313 313 312 311 311 311 311 311 311 311 311 311 311 311 311 311 310 313 313 312 314 315 315 314 314 311 309 309 311 311 311 313 315 316 314 316 318 318 322 321 315 315 316 317 318 314 316 323 319 316 318 315 313 313 312 311 310 310 312 312 313 314 313 314
314 314 316 316 316 316 315 315 315 315 314 313 315 315 315 315 313 313 312 311 313 313 313 315 314 313 312 311 312 312 312 311 311 311 312 311 311 311 311 311 310 311 312 313 314 315 316 314 312 313 313 309 307 308 309 309 313 317 315 315 316 314 319 324 317 314 313 314 318 315 314 321 320 318 322 319 314 316 317 315 310 309 311 312 313 314 313 314
316 315 315 315 316 315 315 315 314 314 313 313 315 316 314 313 312 311 311 311 313 313 314 315 315 313 312 312 312 311 312 312 311 312 312 311 312 312 310 310 310 310 311 312 312 314 317 317 312 311 313 311 309 310 311 309 309 314 315 313 315 315 316 319 317 317 315 313 319 318 314 317 319 319 322 317 313 318 317 316 315 311 310 312 313 314 313 313
314 316 314 313 315 315 315 314 314 314 313 313 315 315 313 312 311 310 310 312 313 314 315 315 315 314 312 312 312 311 312 313 310 311 312 311 313 312 310 311 311 310 309 310 315 315 316 320 315 310 310 312 313 312 314 313 309 310 312 310 314 317 317 317 316 318 319 316 320 320 315 317 320 320 322 316 314 317 313 315 320 313 310 312 313 313 313 313
310 314 314 313 314 314 314 314 313 313 313 314 315 314 312 311 310 309 310 312 313 314 315 316 315 315 313 313 312 311 312 312 310 311 312 311 311 310 310 310 311 311 309 311 317 316 313 318 318 312 309 311 314 314 315 315 312 312 314 312 313 314 316 318 317 318 322 321 321 319 315 322 323 319 319 316 315 316 314 317 321 314 311 313 313 312 312 312
308 310 312 313 314 314 314 313 312 312 312 314 314 312 311 310 309 310 311 312 313 313 314 315 315 315 314 313 312 311 312 312 310 311 313 311 310 311 310 309 310 311 310 312 316 316 314 316 317 314 311 312 316 316 313 314 314 313 314 314 313 314 316 317 315 317 318 318 322 319 314 320 323 316 316 316 316 315 310 312 315 313 312 312 311 311 311 311
308 308 311 313 313 313 313 312 311 310 311 313 312 310 310 310 310 311 311 312 313 312 312 314 314 314 314 313 312 312 312 312 310 311 313 311 311 312 310 308 309 310 311 314 314 314 315 318 318 316 314 315 316 311 306 310 313 312 313 314 313 314 317 317 316 318 316 314 318 318 314 316 318 319 319 316 312 309 306 308 310 311 312 311 310 310 310 311
308 309 311 313 313 312 311 311 310 310 311 311 310 309 310 310 310 311 312 312 312 312 313 314 313 313 314 314 313 313 313 312 311 311 312 312 311 311 310 308 310 310 312 315 314 313 315 319 319 316 314 316 317 311 306 308 311 312 313 313 313 314 316 318 320 320 317 316 315 314 314 314 316 321 315 307 306 306 307 309 310 310 311 311 310 311 311 311
307 310 311 312 313 311 311 312 312 310 311 310 310 311 311 310 310 311 312 312 312 312 313 313 313 313 314 313 313 313 313 313 313 312 313 313 310 309 308 308 310 311 311 313 313 312 315 317 317 317 315 315 317 315 311 310 310 314 316 315 315 316 314 315 317 316 315 318 317 314 315 315 317 319 312 307 311 311 308 309 309 310 311 311 311 310 310 311
308 311 312 311 312 311 310 311 312 311 311 310 310 312 312 310 310 310 311 312 312 312 313 313 313 313 313 313 313 313 314 314 314 312 313 314 311 308 308 309 311 311 311 312 311 312 317 318 316 317 316 314 314 314 314 313 312 315 319 317 315 315 314 314 316 314 313 316 317 315 315 314 312 313 313 314 316 314 310 309 310 311 311 311 311 310 311 311
308 311 311 311 311 310 309 309 311 311 310 310 310 311 312 310 309 309 311 312 311 311 313 312 312 312 312 313 313 313 314 314 313 313 313 313 313 310 308 308 310 310 310 312 310 314 321 319 314 315 315 313 315 316 316 316 313 313 317 316 314 313 314 317 319 316 314 316 316 314 313 313 312 312 313 314 315 317 315 309 309 311 310 311 312 311 312 312
307 309 310 310 310 309 307 309 311 311 310 309 309 311 311 311 310 310 310 312 311 311 312 312 312 313 312 312 313 313 313 314 313 313 312 313 316 313 309 309 310 310 311 311 310 316 322 317 313 315 314 315 321 320 316 315 314 313 314 315 314 315 314 316 316 314 316 317 314 314 315 314 314 315 315 315 318 322 317 308 308 311 310 311 312 312 312 312
306 308 308 309 310 309 308 309 311 311 309 308 309 311 312 311 311 310 311 312 311 311 312 311 312 313 312 313 313 312 313 313 313 313 313 314 316 314 310 309 309 309 312 311 310 314 318 315 313 314 314 317 321 319 315 314 314 313 314 314 314 314 314 314 313 313 316 315 313 316 319 315 314 315 316 316 316 316 312 309 310 311 311 312 312 312 313 313
304 306 306 307 308 308 309 310 309 310 310 308 309 312 312 311 311 312 313 312 311 311 312 312 312 313 313 313 313 312 313 313 313 312 313 314 314 313 311 311 309 308 310 312 312 311 314 316 314 312 313 315 315 314 314 315 314 313 314 313 313 313 313 312 312 313 315 314 312 317 319 315 313 314 315 313 310 308 309 311 312 312 312 313 313 312 313 313
302 304 305 307 307 307 309 310 309 309 309 308 310 312 312 311 311 313 313 312 311 312 312 312 312 312 313 313 313 312 312 313 313 313 312 313 314 312 312 313 312 309 309 311 310 308 312 316 313 312 314 313 312 312 312 313 314 314 314 313 312 312 312 312 312 312 313 312 312 314 314 313 312 311 310 310 310 310 310 311 312 313 313 313 313 313 313 313
302 303 304 306 307 308 310 310 309 309 309 308 309 312 312 312 312 313 314 312 311 312 312 312 312 312 312 313 313 312 312 312 313 312 311 313 313 312 312 312 311 311 311 312 312 311 314 314 310 312 315 311 310 312 312 311 312 313 314 313 312 311 311 311 312 312 312 312 312 313 312 312 312 310 308 309 310 310 310 311 312 312 313 313 313 313 313 313
302 302 304 307 309 309 309 310 309 309 309 308 308 311 313 312 312 313 313 312 311 312 311 311 312 311 312 313 313 312 311 311 311 310 311 312 311 310 310 309 309 311 312 313 314 314 317 315 311 314 316 312 310 312 314 313 311 312 313 312 310 310 311 311 311 312 312 311 312 312 311 314 316 313 312 313 311 309 310 311 312 313 313 313 312 312 313 313
Wind_Speed
24 25 27 31 38 41 39 37 36 38 41 41 41 40 40 39 36 35 34 33 33 32 33 32 30 29 27 26 25 25 26 28 30 29 30 30 28 25 21 18 15 14 12 9 14 18 16 13 12 7 4 7 5 5 6 5 6 4 2 2 2 3 4 4 6 6 3 3 8 15 18 12 8 12 15 12 14 17 15 11 12 16 9 10 13 7 21 31
25 25 25 26 30 39 42 39 36 37 42 43 42 42 41 40 37 35 36 35 35 32 32 32 30 28 27 25 23 23 25 28 30 32 34 30 27 26 22 21 18 16 15 10 9 17 20 16 13 8 3 7 5 5 6 5 7 4 3 2 4 4 4 4 4 6 4 5 11 17 17 15 12 16 18 10 9 15 12 8 10 13 11 13 15 13 23 31
26 25 25 25 27 36 42 39 33 33 41 44 42 43 43 43 39 37 38 38 36 34 33 33 30 29 27 24 22 20 21 25 29 35 36 30 27 26 23 23 22 18 16 12 10 15 20 19 17 10 1 6 5 2 4 5 6 5 3 2 5 5 4 4 3 5 7 8 12 17 17 16 16 19 19 12 9 11 10 12 13 14 16 16 17 20 26 32
27 26 26 25 26 34 38 39 36 30 37 45 43 43 44 44 42 39 39 40 38 36 35 34 32 30 26 22 19 18 18 17 25 37 37 31 31 29 25 25 25 21 17 14 11 14 17 14 18 13 1 2 4 2 2 5 5 3 5 4 4 3 2 5 4 5 7 10 16 18 14 13 17 19 18 17 10 4 12 22 22 20 22 20 22 25 27 32
28 28 28 26 27 31 36 40 41 32 32 44 45 42 43 44 44 41 40 40 40 39 37 35 32 30 26 23 20 19 17 7 13 29 33 32 33 30 27 26 26 24 21 16 13 15 18 12 14 15 1 3 4 2 2 4 5 2 4 9 7 3 1 7 6 5 5 8 15 15 13 14 17 15 18 22 12 9 21 27 25 23 23 21 24 27 28 32
28 28 29 29 28 29 34 40 44 37 31 40 46 43 42 42 44 43 41 41 41 40 39 37 33 30 27 25 22 21 18 5 3 11 25 33 33 31 29 26 26 27 23 19 16 15 18 13 12 15 3 3 2 1 3 4 2 3 5 7 11 10 5 7 6 5 4 9 16 15 14 17 16 10 17 26 18 15 23 25 22 21 20 20 22 25 28 31
29 28 29 30 30 28 31 37 44 42 32 36 45 45 42 42 43 43 43 43 43 42 40 38 34 30 29 26 22 23 24 15 0 3 16 31 33 31 30 26 26 28 26 23 19 16 18 15 14 15 5 1 2 4 4 10 6 4 4 4 8 10 8 8 7 6 5 10 18 16 13 17 17 9 14 25 22 12 13 19 20 19 19 21 22 24 26 28
30 29 28 29 31 29 29 34 41 41 33 35 45 47 44 43 42 42 43 44 44 43 41 38 34 31 30 28 25 23 27 26 11 7 11 24 32 32 30 29 26 28 28 25 22 20 18 16 17 14 5 3 3 5 5 9 7 2 3 7 7 8 8 9 8 5 6 10 14 13 9 15 18 9 10 22 22 12 11 17 20 20 22 23 24 24 25 27
32 32 30 29 31 31 31 32 37 42 34 34 46 50 46 44 42 42 43 43 43 41 41 40 35 32 30 31 28 21 27 31 21 10 9 14 28 33 32 32 31 29 29 28 25 23 20 18 17 13 6 5 3 5 3 4 3 2 4 11 11 10 9 7 9 6 5 9 12 11 6 10 13 5 8 20 21 15 14 18 22 24 26 27 26 25 26 27
33 34 32 31 32 32 32 30 34 43 38 34 45 49 46 45 42 42 42 42 42 41 40 40 36 33 31 34 28 15 23 30 27 20 8 6 18 31 35 34 34 31 30 30 28 27 24 20 18 15 9 4 3 7 5 3 5 5 4 10 10 10 7 6 9 7 4 7 13 12 3 6 9 3 6 16 19 17 16 19 24 27 28 28 27 26 27 26
34 35 34 33 34 33 34 31 31 41 43 36 40 47 46 45 43 42 43 42 42 41 39 39 37 35 33 35 27 15 20 23 26 27 17 11 12 26 38 36 36 34 31 31 30 28 25 22 24 17 7 3 1 8 11 8 11 10 6 6 6 4 4 6 7 7 5 3 11 11 3 2 3 3 8 13 18 18 18 20 25 30 30 29 29 28 28 27
37 36 36 35 35 34 34 34 33 38 44 39 36 43 46 44 43 42 42 41 41 39 39 40 40 38 34 33 31 26 21 15 19 26 25 17 11 22 35 34 35 35 31 32 30 27 23 22 25 19 9 6 4 4 10 13 14 12 7 3 5 5 5 8 6 8 7 2 9 11 3 3 3 9 13 12 18 19 18 22 26 31 32 31 31 29 29 27
40 39 38 37 37 36 35 36 36 37 44 43 34 39 47 45 43 43 42 41 39 40 42 42 41 40 34 28 31 34 25 14 13 19 23 18 12 22 31 28 31 31 29 31 30 28 24 21 23 22 17 10 5 2 7 12 12 8 5 3 3 5 4 8 7 7 6 3 9 11 2 6 8 17 17 13 20 22 21 23 27 31 34 34 33 32 30 28
42 43 41 40 39 38 37 37 38 37 41 47 37 36 47 46 43 43 41 40 39 42 45 43 41 40 34 27 29 34 29 18 13 16 20 18 17 25 28 26 28 27 26 28 28 29 25 21 22 21 17 13 7 6 7 9 8 4 3 3 2 1 4 6 6 8 6 5 8 8 3 6 8 16 18 17 23 26 24 24 27 30 33 34 34 33 31 29
43 45 44 43 41 41 41 38 39 37 37 46 42 36 46 48 44 44 41 40 40 42 46 44 43 39 29 23 26 30 31 25 16 16 20 20 23 29 30 28 27 26 26 27 26 25 23 23 23 17 14 15 10 7 5 3 4 2 4 4 2 4 4 5 5 11 6 4 7 6 2 7 7 10 13 19 25 27 26 25 27 30 32 34 34 33 31 29
44 47 47 47 44 43 44 42 41 40 36 43 43 37 46 46 43 44 41 41 39 41 45 45 47 40 22 16 20 25 31 31 21 17 22 22 24 29 31 29 25 24 24 25 25 23 25 25 20 17 15 11 6 3 2 2 3 3 4 4 3 4 3 4 3 10 7 3 5 4 2 4 5 6 4 16 28 28 26 26 28 31 31 33 33 32 31 30
45 48 50 50 47 45 46 46 44 43 38 42 42 38 45 45 44 44 39 40 38 41 47 45 47 38 15 12 19 24 33 36 27 22 25 25 24 27 31 29 25 25 25 25 26 26 26 23 14 12 11 6 3 5 4 4 5 4 4 4 3 3 3 2 3 7 8 4 5 5 3 6 7 6 3 11 25 27 25 26 28 30 30 32 32 32 31 31
49 53 54 55 51 46 49 49 47 45 40 42 43 39 45 44 41 41 37 40 40 40 40 37 38 25 9 18 27 29 36 35 27 25 30 29 27 29 32 30 28 29 26 22 25 26 21 16 11 6 5 5 5 6 6 6 5 4 6 5 3 2 4 4 3 5 8 5 5 6 5 10 11 8 4 7 18 22 23 24 26 29 30 31 31 32 31 31
56 59 59 58 55 49 51 52 49 48 43 42 43 43 47 44 41 42 41 43 38 25 17 26 35 13 5 26 34 29 35 33 25 27 33 33 32 33 33 30 31 32 26 16 18 23 17 10 9 7 7 8 7 6 6 5 4 4 6 6 4 3 3 4 4 4 7 5 5 7 7 11 12 10 6 8 14 18 20 20 23 27 29 30 31 32 32 32
62 63 63 62 59 53 53 56 52 50 46 43 46 47 45 42 30 25 36 45 40 23 11 31 46 14 1 26 35 29 33 30 27 32 33 34 36 34 31 30 27 23 18 12 14 20 17 8 7 10 9 10 8 6 7 7 3 2 4 6 6 5 4 4 3 3 4 5 5 8 9 11 10 9 8 8 10 13 17 18 21 24 27 30 32 33 34 35
65 65 65 65 63 58 57 59 55 52 48 45 55 52 43 43 27 21 37 36 37 32 16 36 51 15 1 29 38 36 35 26 28 36 32 33 37 29 25 26 19 11 11 14 14 14 14 9 9 11 9 8 7 6 9 9 4 1 1 4 6 6 5 5 2 3 2 4 4 3 6 10 10 9 8 7 7 12 20 22 23 26 28 31 33 35 36 36
65 67 69 69 66 61 61 62 56 54 49 47 58 54 47 53 44 46 48 22 28 36 18 36 47 14 8 32 39 39 34 21 23 35 33 36 38 27 20 20 13 8 10 13 11 9 9 10 9 10 9 6 6 6 8 8 6 4 2 3 4 4 3 4 3 3 1 3 4 1 5 9 10 8 7 8 11 17 26 28 29 30 29 32 34 36 37 36
56 61 64 65 64 63 63 62 57 55 52 52 55 50 50 51 43 53 45 13 18 28 17 36 40 14 17 33 39 41 33 22 23 33 38 38 36 29 24 17 11 10 11 12 12 10 7 7 9 11 10 9 7 7 7 6 5 4 3 4 3 3 3 3 3 2 2 1 2 2 2 6 7 6 6 13 19 21 26 29 31 32 31 33 35 35 36 36
46 52 55 59 62 64 63 61 57 55 56 58 56 53 52 42 37 53 40 11 7 14 15 36 34 17 25 36 42 43 31 25 28 35 42 39 31 25 22 17 13 11 11 13 13 10 4 5 14 13 10 11 9 8 8 5 4 4 5 5 3 4 5 4 2 1 2 2 1 3 3 5 4 4 6 11 15 18 22 23 25 30 32 33 32 33 36 36
46 50 54 59 62 63 62 59 57 57 58 58 57 60 53 34 37 55 36 9 4 9 10 28 26 17 26 34 39 39 27 21 28 38 43 41 33 22 16 17 14 10 11 13 10 7 5 8 17 13 9 13 10 9 8 5 4 3 5 7 6 7 5 4 4 5 3 3 2 1 1 5 4 4 8 6 4 10 15 15 21 28 31 33 33 35 37 37
47 51 56 60 61 63 60 56 59 60 58 55 57 63 52 34 41 51 28 5 3 7 7 21 21 16 24 29 34 35 19 11 23 39 42 38 37 27 16 13 10 8 12 10 4 3 5 8 14 12 11 13 11 9 8 6 5 3 4 7 5 6 6 6 6 4 3 4 2 2 4 5 5 4 7 4 4 8 8 9 18 26 29 31 34 37 38 39
49 54 57 58 62 65 62 57 61 62 57 53 57 63 48 37 47 45 21 1 4 8 9 17 18 17 24 29 38 28 10 13 22 33 40 35 34 29 18 12 8 8 11 8 3 3 6 8 10 12 12 10 10 10 8 7 6 4 4 7 7 6 7 7 7 4 3 3 2 4 3 3 4 5 6 2 4 8 7 7 14 23 30 33 36 38 38 38
50 55 55 59 64 67 66 60 61 66 64 58 60 61 46 43 49 35 13 4 5 8 8 14 17 20 25 31 34 18 11 25 19 21 38 35 29 25 14 11 10 11 13 11 7 2 6 10 10 12 11 8 9 8 7 9 6 5 5 7 6 5 6 6 6 3 0 1 3 4 1 2 4 6 5 3 2 7 8 8 11 19 28 31 35 38 38 38
52 56 57 62 64 66 65 59 64 71 69 65 65 58 48 50 42 19 6 5 4 7 9 16 16 17 24 26 22 14 19 24 12 17 34 28 23 18 10 11 12 11 9 8 6 2 3 10 13 12 9 7 8 6 8 11 6 4 6 6 4 4 4 4 4 3 2 1 5 6 3 3 5 5 4 2 2 5 8 8 9 16 21 22 27 32 35 37
54 58 62 64 65 66 59 53 64 70 66 68 66 54 49 45 27 9 8 6 3 6 12 15 13 17 25 19 10 12 16 12 13 23 24 16 17 13 11 15 12 9 3 3 5 3 2 4 9 7 5 6 7 5 6 9 8 8 7 6 6 5 4 3 2 3 2 3 6 7 5 4 4 5 4 4 5 6 7 7 9 14 17 17 20 23 27 31
57 60 64 65 68 68 55 45 55 63 66 69 64 56 44 25 10 7 9 6 4 6 10 10 11 19 24 17 9 13 11 7 15 23 15 10 11 9 11 12 7 6 3 3 3 3 4 3 4 2 2 5 7 4 1 3 7 8 5 4 4 3 3 3 3 2 2 6 5 5 3 4 5 5 5 6 6 6 7 7 8 10 13 12 12 15 19 23
60 61 64 65 67 67 59 50 52 60 67 69 63 52 30 9 6 8 7 7 5 7 8 9 11 16 19 16 11 12 11 8 14 18 14 11 9 9 11 9 7 7 6 8 5 1 1 1 2 1 1 4 6 4 2 1 3 5 5 6 4 0 1 1 3 1 3 6 4 2 1 3 5 7 8 9 9 9 10 12 13 13 14 14 13 14 15 16
59 61 64 65 65 64 61 56 57 62 64 64 56 36 14 7 9 8 7 5 6 8 11 13 16 19 20 15 9 9 9 9 14 15 12 11 9 8 6 5 8 7 5 7 6 4 2 5 4 0 1 4 6 5 4 2 3 5 6 7 6 3 4 5 4 1 4 5 3 2 2 3 4 5 10 13 14 17 18 17 17 17 18 19 18 15 14 14
58 61 63 65 63 61 57 55 61 67 65 58 40 17 10 12 8 10 10 6 5 10 14 15 17 19 17 12 11 12 8 6 12 14 10 9 9 7 5 6 8 5 5 6 4 6 7 3 3 3 1 2 3 3 5 6 5 4 4 6 6 5 5 6 4 3 4 3 2 2 1 3 3 4 9 12 15 20 22 20 19 19 21 22 21 17 15 15
55 61 64 60 57 56 56 58 64 71 69 51 22 8 11 11 8 11 11 8 7 10 13 15 17 17 11 6 9 9 5 6 11 12 10 10 11 11 10 10 10 7 7 7 4 5 8 4 3 1 1 2 2 2 3 8 6 3 2 5 5 6 5 2 3 5 4 1 2 3 3 4 4 6 9 8 9 14 18 19 18 19 19 17 17 16 15 16
54 59 61 57 54 52 56 63 67 73 67 38 10 7 10 8 10 13 11 12 14 15 18 16 14 14 9 6 8 5 3 7 11 8 8 10 11 13 11 8 8 8 9 9 3 3 8 3 4 2 2 2 2 2 1 4 5 2 3 5 5 5 7 4 2 1 4 2 3 2 3 4 3 6 9 5 4 7 11 14 15 15 13 13 16 17 17 17
60 62 55 54 56 53 59 67 68 70 57 24 8 11 10 8 12 14 13 18 21 21 21 15 11 12 11 8 9 8 7 8 9 7 7 7 8 12 11 8 9 10 9 8 3 2 6 2 3 1 2 1 1 1 2 2 3 5 5 6 3 3 3 4 2 1 2 4 4 1 3 4 2 3 6 6 5 6 8 9 10 10 11 14 17 17 16 16
52 63 51 48 58 59 63 69 69 66 43 14 11 14 9 7 8 11 13 18 21 20 16 13 11 12 14 12 11 13 14 11 9 8 8 7 6 11 15 10 10 13 12 11 6 2 5 3 3 1 2 2 3 2 2 2 1 4 3 2 4 3 2 1 3 3 2 4 4 3 3 4 4 4 4 4 5 7 7 7 7 8 11 15 16 15 15 14
33 46 36 41 61 67 68 70 67 54 26 9 12 11 6 4 6 17 24 21 17 17 14 13 13 11 14 17 16 17 17 15 14 11 9 9 6 10 18 12 7 13 15 12 7 3 4 4 1 2 1 1 3 2 5 2 1 2 1 1 2 2 4 3 3 4 3 4 3 3 3 4 6 6 5 7 9 9 7 5 6 8 10 12 12 12 12 12
22 18 18 44 64 68 74 70 54 34 13 10 13 8 7 6 7 25 39 31 17 13 14 14 14 13 13 16 16 16 13 13 16 13 7 10 6 5 15 14 8 11 12 8 6 4 3 4 3 2 2 2 2 2 6 6 4 2 2 4 2 1 2 2 2 3 3 4 3 2 4 6 6 5 8 10 11 10 7 5 6 6 5 6 7 8 9 9
24 3 12 51 64 67 73 53 27 15 8 9 11 6 8 7 8 23 38 36 20 9 11 15 15 14 14 15 14 13 10 9 13 11 4 8 8 3 12 17 13 12 9 6 6 5 2 3 5 3 1 3 3 3 4 6 5 4 4 6 6 3 4 3 4 1 2 3 4 3 6 9 5 5 7 10 10 9 9 9 7 5 3 2 4 7 9 10
25 3 16 54 64 67 60 25 7 10 6 7 11 7 7 8 11 18 25 28 18 7 9 12 11 11 11 13 14 13 11 9 13 12 4 8 11 4 10 20 21 18 11 5 4 4 3 5 5 2 3 5 4 1 4 4 2 3 2 4 5 4 5 6 6 3 1 3 3 3 5 7 5 7 7 8 8 8 9 10 8 5 3 3 6 7 9 9
19 9 28 57 66 66 42 9 7 9 3 7 11 7 5 7 13 18 19 19 13 8 9 9 9 11 8 8 12 13 11 8 11 11 4 5 8 6 15 26 26 19 10 5 5 5 4 5 4 1 2 3 4 2 2 2 2 2 3 2 4 4 3 5 5 4 3 5 4 2 5 5 4 6 7 8 6 5 5 7 8 8 4 5 6 6 6 6
15 19 36 53 67 64 31 7 11 9 4 11 9 5 4 5 12 17 18 17 12 10 11 11 12 13 9 9 13 15 14 9 8 8 5 4 6 11 25 33 28 18 10 9 10 8 4 3 4 4 2 2 3 3 2 2 2 3 3 2 4 4 4 3 2 3 3 7 8 5 8 7 2 1 2 2 1 5 7 7 9 9 5 5 5 4 4 5
13 19 31 43 61 59 22 4 12 11 10 16 13 8 7 8 15 22 21 15 11 12 12 11 15 14 12 13 13 14 15 8 6 7 5 5 4 8 24 35 30 20 14 16 18 13 6 3 5 6 6 7 8 6 6 4 3 1 2 4 6 6 6 4 3 3 7 6 9 9 9 3 3 2 2 2 2 6 10 7 6 5 2 4 5 4 4 5
7 7 15 23 41 42 14 2 11 10 9 15 11 8 10 10 13 22 24 12 6 12 10 7 13 12 11 15 13 13 14 6 5 8 5 8 5 3 21 35 31 24 20 23 28 18 4 3 7 9 11 11 9 6 6 10 8 7 7 8 7 7 8 5 4 6 6 5 7 12 7 1 2 3 5 6 6 7 8 6 6 5 2 4 5 5 6 5
4 3 7 11 17 19 6 2 9 10 10 14 8 5 13 14 9 14 18 9 9 16 9 6 14 13 13 19 14 13 15 7 7 12 10 10 5 3 18 28 26 28 24 23 29 18 3 4 12 13 13 9 6 6 8 13 14 12 10 10 10 9 10 9 10 8 6 6 8 6 5 6 7 5 7 9 7 6 7 8 8 6 3 3 2 3 5 6
3 3 12 18 13 9 6 6 12 13 14 15 7 4 12 16 15 14 10 7 15 19 10 7 16 18 18 21 14 12 14 8 8 12 11 9 5 6 12 12 13 25 24 18 20 13 4 8 12 10 9 5 5 9 11 12 11 10 12 14 13 13 14 16 16 7 8 9 11 4 8 12 9 6 9 9 8 7 5 6 7 8 9 9 6 5 6 8
3 3 10 16 7 5 9 14 18 17 17 15 8 6 11 17 19 12 5 8 14 16 14 13 17 21 22 20 14 13 15 12 12 13 12 13 12 10 11 6 5 14 16 11 11 6 4 7 6 7 7 2 3 8 11 11 9 8 13 15 15 17 18 18 17 10 8 15 13 4 7 11 6 8 9 10 10 7 5 9 13 14 17 18 15 13 11 11
4 3 8 9 2 4 8 11 15 15 14 13 9 7 11 17 20 11 4 11 16 15 18 22 23 22 22 21 18 17 21 19 17 15 13 13 12 10 10 7 4 6 7 7 6 2 3 5 3 7 6 0 2 4 6 9 9 9 12 15 17 19 18 17 15 10 9 15 13 8 13 12 5 7 8 13 15 11 11 15 17 16 16 15 14 13 12 12
5 5 9 8 4 8 10 9 12 12 10 11 10 8 11 17 20 12 2 5 14 15 18 24 25 20 18 21 21 19 21 19 17 19 20 19 17 13 8 6 8 8 5 6 6 2 4 3 2 6 6 3 1 5 5 5 5 5 11 18 19 17 15 13 12 10 12 14 11 10 14 11 4 5 6 10 12 12 15 17 16 15 12 10 12 13 14 16
5 7 12 10 5 9 12 9 11 12 10 12 10 7 10 14 17 15 6 1 5 11 16 20 20 15 14 19 21 21 23 21 20 24 26 26 23 17 14 17 20 17 10 6 4 3 6 6 3 5 7 4 2 6 8 7 4 6 13 16 19 15 11 10 9 12 15 13 10 12 12 5 5 6 6 7 9 12 15 18 17 16 13 12 14 15 17 18
Wind_Direction
235 236 237 239 233 225 219 210 209 215 216 216 215 214 212 210 208 207 209 209 210 210 208 207 208 210 211 210 211 214 216 216 213 213 219 216 208 205 204 197 178 166 162 170 197 192 184 187 192 190 159 160 161 165 175 188 168 155 132 130 221 190 197 192 178 196 177 194 197 187 180 160 150 167 164 157 159 151 155 167 164 185 199 191 193 177 171 168
235 238 237 241 236 228 225 214 206 213 215 214 214 213 212 210 209 210 210 210 210 210 210 209 210 212 213 211 209 210 214 216 217 220 220 213 206 206 207 199 185 175 167 161 194 202 192 189 198 207 155 134 132 150 160 182 176 169 131 147 220 195 208 206 192 215 217 214 188 181 181 171 163 161 158 154 156 149 145 155 159 177 176 178 191 183 175 170
235 237 237 239 232 228 231 222 212 216 214 213 213 211 212 211 210 211 212 212 210 209 209 209 210 211 209 205 205 208 212 215 222 224 217 211 209 208 211 205 192 182 178 174 176 200 200 195 204 210 131 127 123 118 152 160 181 198 160 178 237 219 245 248 242 241 242 235 184 172 180 175 166 161 164 161 158 163 164 167 166 172 173 175 181 179 178 173
235 235 237 238 232 229 233 227 221 222 213 212 212 210 212 211 209 209 211 213 211 208 208 207 207 208 205 196 194 198 199 211 230 228 215 209 211 209 212 206 197 188 187 188 174 188 188 181 204 206 21 89 110 25 200 169 183 191 170 202 234 190 261 268 270 297 274 233 191 170 167 172 167 165 170 159 144 209 202 188 188 184 178 173 173 176 180 176
237 235 235 237 238 233 231 227 223 223 214 210 210 209 211 211 209 208 209 212 212 209 209 209 207 207 204 194 188 186 185 197 246 234 218 209 210 210 210 205 199 194 194 193 174 181 180 162 187 190 202 2 62 20 241 196 182 178 218 227 241 204 244 285 282 307 289 207 183 163 162 175 168 172 180 168 162 215 205 197 197 195 189 183 177 177 181 181
239 236 234 236 240 238 233 228 222 223 220 211 209 208 209 211 209 209 209 213 214 211 211 210 206 205 204 198 194 188 187 194 327 240 217 208 208 209 208 206 201 197 198 195 178 176 179 162 162 174 179 355 16 291 261 314 227 211 264 238 249 244 239 285 281 282 268 178 176 173 177 173 162 183 192 184 191 205 203 201 199 200 201 196 185 180 184 186
240 238 236 235 237 239 236 230 222 221 222 212 208 208 209 211 210 210 211 213 215 211 211 211 206 204 200 197 201 199 203 216 108 110 198 203 206 206 207 208 204 201 199 195 184 171 168 158 154 164 156 107 296 280 274 327 322 210 262 281 268 253 241 265 264 268 251 193 188 181 176 172 170 185 191 196 204 203 204 203 202 202 199 196 192 189 190 191
240 239 236 234 235 236 235 233 224 219 221 214 209 207 208 209 209 210 211 211 213 211 210 210 207 204 201 198 194 196 209 212 194 114 157 191 199 203 206 207 206 205 201 197 188 175 164 151 150 156 145 172 260 291 277 320 326 165 255 289 295 272 252 248 240 248 227 204 196 183 181 184 181 179 189 204 208 205 206 199 199 197 194 197 198 198 197 195
241 240 237 234 235 234 234 237 226 218 221 220 211 207 205 206 205 207 210 209 211 211 210 210 207 203 203 203 193 197 213 204 193 168 131 173 193 199 205 206 204 204 203 199 192 185 173 154 148 146 146 180 216 274 285 347 319 152 265 283 289 273 257 238 223 214 194 195 188 181 191 189 181 179 209 211 208 204 205 198 197 195 195 198 200 204 202 200
240 240 238 234 234 233 232 237 229 220 222 221 210 204 203 204 203 204 206 208 211 211 209 208 205 197 196 198 190 205 220 204 200 199 171 182 197 196 202 206 203 201 201 199 194 194 188 171 161 151 143 158 211 259 277 356 286 247 272 300 294 265 251 231 218 212 195 186 183 176 173 196 184 183 226 211 204 203 202 198 197 197 200 201 202 207 207 208
240 240 238 233 233 233 230 234 231 222 223 221 208 203 202 202 202 203 204 207 211 210 208 205 200 194 193 192 189 207 218 209 213 213 215 231 219 199 198 203 203 199 199 197 195 196 195 185 175 162 138 123 183 278 272 266 275 261 254 315 307 279 268 233 213 212 206 181 189 174 124 226 188 216 229 204 195 201 202 198 197 200 205 205 205 207 209 212
240 239 238 233 231 233 230 231 231 222 220 218 210 205 203 202 202 201 203 206 209 210 208 202 196 195 192 193 203 212 211 209 214 217 222 226 227 203 196 198 201 199 199 196 192 191 192 188 180 169 155 140 116 313 274 258 268 260 233 276 302 343 315 239 210 204 205 176 179 158 113 278 230 228 225 199 193 198 200 199 198 201 205 206 206 207 209 213
240 237 237 234 232 232 230 229 231 226 217 214 216 209 202 202 201 199 202 204 208 210 205 197 194 195 191 196 213 217 216 214 208 211 216 216 212 198 194 195 196 198 201 199 193 189 191 196 187 174 165 150 134 206 277 274 266 252 209 209 277 352 318 233 201 187 193 189 170 152 189 257 235 233 222 196 196 194 192 197 196 200 204 205 206 207 210 211
240 236 236 236 234 233 230 229 230 230 220 213 219 216 201 199 200 199 200 200 205 206 199 194 194 193 193 204 218 219 218 218 215 209 204 203 195 188 190 193 193 195 201 204 199 192 192 193 184 172 165 166 192 256 295 289 257 224 168 188 207 235 279 251 190 163 167 206 183 152 216 250 247 243 227 203 199 194 190 194 196 200 204 206 208 209 212 211
240 237 236 237 235 234 232 229 228 229 222 213 220 220 199 195 198 197 197 198 202 202 193 191 193 189 189 207 220 218 216 216 219 212 201 196 189 185 186 188 192 193 197 203 201 195 188 178 171 160 158 178 211 269 291 277 257 205 188 208 192 192 260 299 197 174 167 195 182 151 214 258 269 262 232 206 202 197 194 196 197 200 203 207 210 211 214 215
241 238 238 238 236 235 232 229 227 226 219 212 217 214 196 193 196 194 195 195 199 199 188 183 187 186 182 201 216 214 211 214 216 209 201 197 191 183 182 185 189 188 188 193 192 186 176 166 164 163 164 184 210 232 241 276 277 236 208 209 198 190 235 312 228 201 190 143 176 182 223 253 273 294 248 206 204 200 197 200 200 200 204 207 211 214 215 217
242 240 240 239 236 235 231 227 226 224 218 211 211 205 193 193 193 191 191 193 199 198 188 183 180 180 183 192 198 202 205 209 210 202 194 196 194 183 180 180 178 178 175 175 174 168 166 163 161 169 178 201 194 171 207 233 225 223 206 207 221 194 196 251 273 222 199 166 191 203 227 241 261 307 325 206 202 199 200 204 203 203 206 209 213 215 216 219
244 242 242 240 235 233 230 225 222 221 217 211 208 200 193 194 191 187 186 189 192 189 186 184 175 171 198 195 191 198 201 202 202 194 187 188 193 188 181 173 166 168 165 161 166 165 167 170 165 172 191 203 202 187 196 207 198 190 188 200 234 205 201 215 243 211 180 178 201 188 232 255 261 284 294 204 198 201 207 208 207 208 209 211 214 217 219 221
243 242 241 237 233 232 229 223 218 218 215 210 205 198 192 189 184 184 185 185 181 176 177 176 173 173 248 194 191 195 194 191 187 186 184 182 185 184 175 167 162 162 158 157 171 175 173 166 170 193 203 199 205 193 196 210 183 172 182 187 200 207 228 223 238 226 171 164 208 193 219 244 250 265 257 208 200 206 214 215 214 213 213 213 216 220 223 225
238 236 236 234 230 231 228 219 215 215 212 208 200 192 182 174 174 178 177 183 182 175 175 177 179 185 358 180 184 184 181 183 183 180 181 182 178 170 162 161 161 161 161 161 174 181 178 171 190 200 198 199 197 173 195 222 210 178 172 181 206 219 245 240 248 267 165 159 224 211 221 244 248 263 259 222 208 213 220 224 225 221 217 217 219 223 227 230
233 231 231 229 228 230 225 215 212 211 208 205 196 190 178 168 172 169 164 180 189 180 184 182 180 188 203 177 179 174 167 169 180 176 177 180 171 159 157 161 161 168 172 158 158 171 179 195 205 194 190 192 188 175 199 219 224 255 159 176 216 219 240 255 254 289 153 169 245 227 227 256 255 258 263 224 204 221 223 223 227 226 223 222 223 227 230 234
233 230 229 227 227 226 217 209 209 206 203 201 191 185 182 177 180 177 165 166 182 179 191 184 179 192 195 177 176 171 159 150 169 173 173 171 166 161 163 167 167 164 157 151 153 163 190 212 197 180 181 183 199 202 208 219 210 212 175 151 214 219 246 288 286 301 67 177 252 215 209 252 257 253 251 212 207 227 228 225 227 227 225 226 227 230 233 235
230 226 224 222 220 213 206 205 205 201 197 198 190 181 182 183 182 178 167 130 161 175 192 184 180 184 169 168 172 170 161 155 165 172 172 167 167 169 167 169 173 162 158 165 172 174 194 210 179 169 176 187 216 224 223 233 209 197 170 155 222 218 193 242 259 269 60 109 204 146 229 269 272 276 259 224 221 232 236 234 234 232 230 232 233 233 234 235
216 211 207 206 204 200 200 199 198 197 194 195 193 185 184 186 186 177 161 89 132 173 194 184 182 184 167 163 170 170 165 166 168 170 173 170 168 170 168 170 167 164 175 177 175 180 196 172 165 169 183 194 213 227 225 226 217 220 191 181 215 202 190 205 196 131 35 0 87 96 345 305 273 268 264 236 224 235 243 241 240 239 237 239 239 237 237 238
201 197 195 194 194 193 193 191 191 192 193 194 191 186 188 190 184 174 156 79 141 173 194 185 187 198 176 164 170 171 162 167 171 170 173 174 170 162 163 172 171 174 180 174 168 184 218 179 165 169 189 194 207 228 221 194 201 249 210 197 196 180 175 160 131 94 59 305 287 120 267 291 302 263 251 260 252 246 245 240 242 244 242 240 238 237 239 240
192 190 189 188 188 186 184 184 189 188 190 194 185 181 188 185 174 170 156 65 194 165 164 179 188 194 176 165 166 165 156 164 176 171 171 176 174 163 154 169 180 180 169 167 166 180 213 183 168 175 186 190 206 224 219 183 181 249 229 198 172 139 131 140 144 113 128 226 282 84 170 251 318 295 253 278 298 266 252 242 245 246 246 243 240 240 240 239
190 187 185 185 184 182 179 182 188 186 187 191 180 180 186 174 167 169 158 26 218 157 150 173 180 178 175 169 163 162 160 158 163 172 173 174 174 167 164 171 173 172 159 154 185 194 175 173 177 181 181 190 202 212 215 179 174 234 222 170 140 132 148 159 156 150 181 212 334 28 130 212 290 272 265 300 296 285 279 259 252 247 246 244 243 242 240 239
187 183 182 183 183 181 180 182 183 185 190 188 180 182 181 165 166 169 167 221 176 132 140 167 172 173 172 170 166 157 144 152 152 176 176 171 171 170 173 182 164 160 165 167 191 202 150 174 188 178 178 198 198 201 195 174 190 234 194 155 151 153 157 156 144 142 103 106 289 305 136 183 267 274 296 343 290 288 282 262 253 246 246 246 245 244 243 243
185 181 180 180 182 182 181 182 183 187 191 186 182 182 174 165 166 166 189 215 136 122 151 160 167 168 161 165 170 143 138 154 150 168 173 171 174 174 175 179 157 149 169 171 178 194 151 184 188 174 180 198 191 195 182 176 201 196 138 111 97 85 84 107 120 116 81 115 239 249 194 191 270 278 298 318 257 262 268 263 258 255 254 252 249 246 245 245
185 181 181 178 179 180 180 183 185 187 187 183 181 177 168 165 163 168 204 191 105 151 156 152 164 166 159 161 166 139 141 152 134 148 165 170 170 165 152 160 150 137 130 70 149 210 356 167 180 176 184 182 169 171 179 185 175 133 108 82 71 50 45 51 60 98 136 254 249 239 211 194 257 275 248 227 225 218 231 259 272 271 268 262 257 255 251 249
185 181 180 178 178 180 180 179 179 179 178 175 172 167 164 162 159 186 189 148 100 150 144 143 164 168 165 163 157 149 144 131 136 147 160 165 159 145 139 154 149 123 106 95 162 312 16 120 175 185 174 148 131 116 114 203 166 128 102 99 91 15 17 25 358 46 199 246 259 251 216 188 227 261 240 232 246 225 214 239 260 268 274 279 282 280 271 264
183 180 179 179 180 181 182 182 177 172 168 164 161 159 157 156 187 186 158 139 151 157 152 161 168 168 166 161 154 150 142 141 154 157 161 164 167 166 165 176 170 151 171 181 173 31 70 215 279 330 216 163 142 134 88 20 170 139 117 129 138 6 48 215 259 262 226 243 264 263 211 212 233 248 251 253 260 249 228 226 240 261 278 293 305 301 291 282
181 181 179 180 182 182 185 186 179 172 164 159 157 156 154 177 182 150 124 156 171 156 161 166 167 165 162 158 152 144 137 149 163 163 161 158 163 180 192 190 166 154 168 168 144 135 192 302 307 141 278 205 169 163 161 166 175 153 143 157 168 157 165 206 225 253 248 255 284 269 240 259 265 259 247 242 245 250 249 247 253 265 275 288 297 294 287 288
179 180 179 180 183 183 185 183 176 172 166 158 155 156 176 185 162 133 146 171 162 153 161 163 160 163 162 157 157 150 133 150 164 158 153 154 162 186 211 206 182 138 109 142 151 167 180 241 234 179 217 199 172 181 168 146 156 183 159 151 167 167 171 200 202 192 224 255 289 267 225 199 197 245 244 240 250 257 262 265 267 268 272 281 284 277 271 277
181 179 179 180 181 183 185 180 171 169 165 158 156 175 182 176 147 147 160 158 150 151 156 159 154 156 159 146 154 154 124 152 166 155 158 169 175 185 190 195 189 150 136 164 179 173 174 207 273 273 325 127 149 222 150 129 159 222 134 137 187 186 152 154 189 174 165 176 254 228 231 212 209 272 274 257 261 267 269 270 269 270 273 274 271 267 265 268
183 180 180 180 181 183 183 176 169 166 162 156 158 186 188 188 163 163 165 157 159 154 150 158 159 156 156 144 156 156 84 138 158 156 172 181 185 190 189 190 186 171 164 161 149 164 164 188 313 345 19 65 128 234 281 151 177 167 135 187 212 163 129 131 200 123 105 180 248 208 250 291 313 295 295 304 298 288 279 272 269 270 267 259 259 264 266 266
179 181 184 181 184 185 177 171 169 165 161 157 169 181 197 206 170 160 160 158 158 155 151 156 168 163 155 148 159 156 121 132 157 167 173 180 195 193 191 193 182 183 180 151 138 202 150 123 328 68 113 341 18 25 357 15 138 140 178 205 176 111 104 122 173 1 93 220 269 259 233 278 306 272 310 343 328 292 277 274 280 274 252 244 254 263 267 272
173 176 182 182 183 181 172 170 169 164 160 165 187 186 198 199 160 138 145 151 152 155 154 155 166 167 160 156 161 161 151 150 170 176 167 183 220 194 186 194 180 179 181 155 147 207 135 113 320 354 156 259 357 76 143 347 85 156 191 186 132 153 203 146 170 190 180 218 271 303 262 248 209 219 282 290 261 259 267 285 301 277 241 234 247 262 267 269
172 167 177 181 175 173 170 169 165 160 162 184 189 188 187 188 155 140 146 150 151 156 161 163 166 170 170 166 162 165 167 165 170 174 173 187 217 195 184 186 172 177 182 164 155 187 130 121 242 285 232 243 13 100 181 209 28 89 67 84 106 147 177 180 167 163 172 203 238 296 294 249 220 211 222 249 258 253 245 265 280 261 236 226 238 258 266 263
189 165 171 173 168 166 167 166 161 161 176 191 182 182 176 183 160 150 153 155 158 167 169 167 167 167 172 170 162 165 170 166 168 175 180 181 190 206 189 181 161 171 175 154 143 158 127 117 169 265 335 150 178 210 187 176 164 153 158 181 203 78 124 164 175 137 138 175 191 250 269 258 238 201 194 219 248 251 229 232 259 250 214 213 242 267 280 283
193 233 170 169 166 163 162 160 158 170 195 185 176 181 177 167 145 153 157 157 158 172 167 165 170 168 167 167 163 164 161 153 169 177 173 178 179 217 197 180 158 156 158 137 146 166 157 130 145 158 166 180 224 248 183 176 176 168 181 190 186 150 125 172 222 203 108 179 180 180 253 261 239 199 199 206 229 244 223 218 243 240 190 231 279 290 298 305
181 232 170 167 166 161 157 152 168 183 193 179 173 176 160 142 146 156 157 157 156 152 152 161 171 167 166 168 164 166 159 151 174 180 166 182 183 186 183 167 154 154 154 138 157 156 107 102 114 144 195 206 240 218 154 170 146 124 209 204 177 170 151 166 210 220 183 221 162 135 263 266 200 182 202 210 225 238 218 213 229 234 240 311 321 313 311 314
168 158 164 166 165 160 153 147 185 180 200 175 175 185 157 147 160 156 152 160 159 142 149 159 164 164 170 166 158 164 163 154 175 176 134 158 180 168 160 155 151 156 155 137 160 160 126 103 97 64 316 308 313 5 86 94 98 164 240 189 166 202 159 148 187 183 195 217 160 132 266 258 179 176 193 204 225 249 226 213 231 248 283 341 337 322 322 329
159 148 156 164 166 163 158 168 178 170 170 170 181 213 167 151 165 158 157 166 163 151 157 160 165 168 166 162 162 171 171 162 179 180 132 133 176 164 159 157 158 165 174 176 172 168 168 127 113 123 77 10 331 325 274 222 151 191 223 178 183 174 106 113 149 129 219 208 164 181 244 249 267 268 190 175 268 277 252 229 239 261 311 1 349 335 344 2
158 149 153 162 167 167 165 180 172 165 165 170 182 195 165 154 173 169 161 162 161 159 157 160 166 162 154 157 162 174 177 164 163 169 133 126 154 160 162 164 167 174 182 177 161 151 158 162 136 138 154 184 198 210 213 180 141 204 203 187 197 179 165 169 130 173 230 194 161 204 236 274 343 308 220 228 257 256 252 240 236 250 319 4 2 14 12 10
168 153 151 157 166 170 169 129 160 160 164 170 180 192 163 155 175 169 159 155 160 155 145 142 151 143 147 156 153 171 181 160 132 151 139 144 146 174 173 171 173 178 177 165 155 147 131 175 172 179 189 194 194 190 147 129 151 202 190 177 193 193 183 158 141 206 205 145 195 226 221 191 277 220 210 222 220 236 251 240 220 226 296 343 352 7 6 5
181 176 158 150 159 171 169 101 158 162 169 173 180 198 168 154 160 168 166 165 152 146 130 121 146 146 158 160 154 171 176 154 141 157 157 156 132 121 173 176 179 178 171 161 159 150 94 194 194 198 200 194 166 159 148 149 174 190 176 180 197 194 185 185 205 206 136 149 228 217 158 205 236 227 217 217 216 232 244 231 222 237 288 315 311 318 328 334
174 163 167 159 154 169 180 174 169 166 175 181 185 189 170 159 159 170 180 166 152 149 134 138 161 163 166 164 159 165 166 152 156 163 158 159 132 115 164 183 191 178 169 164 168 160 142 196 197 190 196 197 141 156 163 164 175 176 177 192 198 195 198 206 217 196 134 206 237 152 165 217 219 213 225 217 211 216 225 245 265 285 292 292 293 293 302 312
153 102 164 166 154 157 166 165 166 168 178 186 189 176 169 167 167 168 158 147 158 160 150 156 172 169 166 166 156 156 168 167 170 175 168 163 159 148 158 179 201 179 170 166 177 178 167 191 183 151 169 204 130 166 172 161 159 174 191 200 200 203 209 211 217 207 190 233 248 220 240 249 207 197 229 234 239 255 289 292 292 293 290 292 298 302 302 304
182 143 159 167 124 99 126 143 157 168 179 187 199 191 173 172 171 166 154 162 168 169 161 164 173 171 167 166 162 172 183 177 171 174 163 155 160 161 165 172 165 162 160 162 179 193 149 180 157 124 142 340 78 153 172 160 162 180 202 212 209 210 214 215 218 212 216 244 256 265 275 272 210 185 216 233 249 274 287 278 276 278 281 283 286 291 295 299
203 187 164 163 147 140 142 146 158 168 181 190 200 195 178 177 171 157 123 177 170 172 171 168 167 165 164 169 175 182 180 171 165 166 161 160 168 171 172 169 152 145 146 159 168 120 93 132 96 109 147 237 204 135 141 124 128 194 225 224 214 210 211 214 214 203 212 234 243 252 263 258 200 160 181 210 224 235 246 253 260 265 266 271 279 288 294 295
174 176 167 158 134 151 157 152 159 171 187 194 197 194 183 181 171 155 133 61 163 163 161 157 153 151 163 178 184 180 172 168 164 164 164 164 164 159 151 152 154 154 154 153 151 129 123 132 131 136 165 226 222 144 130 97 90 250 243 218 206 208 205 206 222 219 216 220 218 231 245 228 151 156 165 191 207 213 227 235 243 252 256 267 278 282 284 283